DECAYED

STARLINK-2042, 47658 (Decayed)

Orbit data source: Space-Track

STARLINK-2042, 47658 was a payload satellite owned by SpaceX/Seattle (US) in LEO that was launched on Tue, 16 Feb 2021 UTC via an FALCON 9 launch vehicle from the Air Force Eastern Test Range (AFETR). Payload-class satellites include a variety of spacecraft equipped with specific instruments for various scientific and technological missions. These include communications satellites like Starlink; space stations such as the ISS; scientific satellites like the Hubble; Earth observation satellites from companies like Planet Labs, Umbra, and HawkEye 360; GPS; miniature CubeSats for education and research; and military/defense satellites.

Not visible in the next 10 days
Identifier
47658, 2021-012AQ
Orbit
Decayed
Country
Flag of USUS
Related business
Manufacturer
SpaceX/Seattle
Mission
Decayed Commercial Communications
Bus & Motor
STARLINK, Unknown motor
Mass
260 kg wet, ~248 kg dry
Launch date (UTC)
2021-02-16 (5 years ago)
Launch vehicle
FALCON 9
Launch site
Air Force Eastern Test Range (AFETR)
Object type
Payload
Rocket body
Debris
Shape & HBR
Box + 1 Pan, 10.1 m
Radar Cross Section
13.562 m², Large (>1 m²)

Expand to show TLE details & history
Last TLE update: 10 months ago

TLE from 10 months ago
0 STARLINK-2042
1 47658U 21012AQ  25043.92636760  .21326616  12577-4  44619-3 0  9999
2 47658  53.0172 343.3577 0004478 291.6557 186.7188 16.46695280221113
Epoch: 2025-02-12T22:13Z
TLE epoch observation values (Epoch: 2025-02-12T22:13:58.160Z)
Latitude
44.80649°
Longitude
-1.39216°
Altitude
155.544 km
Speed
7.817 km/s
True Right ascension
07h 41m 14s
True Declination
44° 37' 07"
Sunlit
Object was in full shadow at epoch
Visualization orbit readout
Latitude
Unknown
Longitude
Unknown
Altitude
Unknown
Speed
Unknown
Apparent Right ascension
Unknown
Apparent Declination
Unknown
Sunlit
N/A
Visualization observer readout
Local Sidereal Time
19:50:28
Azimuth
Unknown
Elevation
Unknown
Doppler factor
Unknown
Orbital elements
Apogee altitude
151.268 km
Perigee altitude
145.423 km
Semi-major axis
6,526.483 km
Eccentricity
0.00045
Inclination
53.0172°
RAAN
343.3577°
Arg. of periapsis
291.6557°
True anomaly
186.7128°
Mean anomaly
186.7188°
Eccentric anomaly
186.7158°
Mean motion
4.11646 °/min
Orbital period
87.45 mins
BSTAR
0.00044619
Loading maneuver chart data...
Computing Atmospheric mass density...
Loading historical data...
Loading historical data...
Loading historical data...
Loading historical data...
Loading historical data...
Loading historical data...
Loading historical data...

Documentation

Showing up to 5 results
|